owner,sensor,date,latitude,longitude,air_temperature,qcFlag 
TABS,ioos:station:wmo:42044:1,2017-01-05T00:00:00Z,26.1914,-97.0507,19.3,11144222 
TABS,ioos:station:wmo:42044:1,2017-01-05T00:30:00Z,26.1914,-97.0507,19.2,11144222 
TABS,ioos:station:wmo:42044:1,2017-01-05T01:00:00Z,26.1914,-97.0507,18.5,11144222 
TABS,ioos:station:wmo:42044:1,2017-01-05T01:30:00Z,26.1914,-97.0507,18.4,11144222 
TABS,ioos:station:wmo:42044:1,2017-01-05T02:00:00Z,26.1914,-97.0507,18.7,11144222 
TABS,ioos:station:wmo:42044:1,2017-01-05T02:30:00Z,26.1914,-97.0507,18.6,11144222 
TABS,ioos:station:wmo:42044:1,2017-01-05T03:00:00Z,26.1914,-97.0507,18.6,11144222 
TABS,ioos:station:wmo:42044:1,2017-01-05T03:30:00Z,26.1914,-97.0507,18.3,11144222 
TABS,ioos:station:wmo:42044:1,2017-01-05T04:00:00Z,26.1914,-97.0507,18.0,11144222 
TABS,ioos:station:wmo:42044:1,2017-01-05T04:30:00Z,26.1914,-97.0507,18.1,11144222 
TABS,ioos:station:wmo:42044:1,2017-01-05T05:00:00Z,26.1914,-97.0507,17.7,11144222 
TABS,ioos:station:wmo:42044:1,2017-01-05T05:30:00Z,26.1914,-97.0507,16.8,11144222 
TABS,ioos:station:wmo:42044:1,2017-01-05T06:00:00Z,26.1914,-97.0507,17.2,11144222 
TABS,ioos:station:wmo:42044:1,2017-01-05T06:30:00Z,26.1914,-97.0507,17.5,11144222 
TABS,ioos:station:wmo:42044:1,2017-01-05T07:00:00Z,26.1914,-97.0507,17.7,11144222 
TABS,ioos:station:wmo:42044:1,2017-01-05T07:30:00Z,26.1914,-97.0507,17.8,11144222 
TABS,ioos:station:wmo:42044:1,2017-01-05T08:00:00Z,26.1914,-97.0507,17.9,11144222 
TABS,ioos:station:wmo:42044:1,2017-01-05T08:30:00Z,26.1914,-97.0507,17.8,11144222 
TABS,ioos:station:wmo:42044:1,2017-01-05T09:00:00Z,26.1914,-97.0507,17.9,11144222 
TABS,ioos:station:wmo:42044:1,2017-01-05T09:30:00Z,26.1914,-97.0507,17.8,11144222 
TABS,ioos:station:wmo:42044:1,2017-01-05T10:00:00Z,26.1914,-97.0507,18.0,11144222 
TABS,ioos:station:wmo:42044:1,2017-01-05T10:30:00Z,26.1914,-97.0507,18.0,11144222 
TABS,ioos:station:wmo:42044:1,2017-01-05T11:00:00Z,26.1914,-97.0507,18.0,11144222 
TABS,ioos:station:wmo:42044:1,2017-01-05T11:30:00Z,26.1914,-97.0507,17.8,11144222 
TABS,ioos:station:wmo:42044:1,2017-01-05T12:00:00Z,26.1914,-97.0507,15.9,11144222 
TABS,ioos:station:wmo:42044:1,2017-01-05T12:30:00Z,26.1914,-97.0507,15.6,11144222 
TABS,ioos:station:wmo:42044:1,2017-01-05T13:00:00Z,26.1914,-97.0507,15.7,11144222 
TABS,ioos:station:wmo:42044:1,2017-01-05T13:30:00Z,26.1914,-97.0507,16.1,11144222 
TABS,ioos:station:wmo:42044:1,2017-01-05T14:00:00Z,26.1914,-97.0507,16.3,11144222 
TABS,ioos:station:wmo:42044:1,2017-01-05T14:30:00Z,26.1914,-97.0507,16.7,11144222 
TABS,ioos:station:wmo:42044:1,2017-01-05T15:00:00Z,26.1914,-97.0507,16.6,11144222 
TABS,ioos:station:wmo:42044:1,2017-01-05T15:30:00Z,26.1914,-97.0507,16.8,11144222 
TABS,ioos:station:wmo:42044:1,2017-01-05T16:00:00Z,26.1914,-97.0507,16.2,11144222 
TABS,ioos:station:wmo:42044:1,2017-01-05T16:30:00Z,26.1914,-97.0507,16.2,11144222 
TABS,ioos:station:wmo:42044:1,2017-01-05T17:00:00Z,26.1914,-97.0507,16.2,11144222 
TABS,ioos:station:wmo:42044:1,2017-01-05T17:30:00Z,26.1914,-97.0507,16.1,11144222 
TABS,ioos:station:wmo:42044:1,2017-01-05T18:00:00Z,26.1914,-97.0507,16.5,11144222 
TABS,ioos:station:wmo:42044:1,2017-01-05T18:30:00Z,26.1914,-97.0507,16.8,11144222 
TABS,ioos:station:wmo:42044:1,2017-01-05T19:00:00Z,26.1914,-97.0507,17.3,11144222 
TABS,ioos:station:wmo:42044:1,2017-01-05T19:30:00Z,26.1914,-97.0507,17.1,11144222 
TABS,ioos:station:wmo:42044:1,2017-01-05T20:00:00Z,26.1914,-97.0507,17.3,11144222 
TABS,ioos:station:wmo:42044:1,2017-01-05T20:30:00Z,26.1914,-97.0507,17.8,11144222 
TABS,ioos:station:wmo:42044:1,2017-01-05T21:00:00Z,26.1914,-97.0507,18.1,11144222 
TABS,ioos:station:wmo:42044:1,2017-01-05T21:30:00Z,26.1914,-97.0507,18.1,11144222 
TABS,ioos:station:wmo:42044:1,2017-01-05T22:00:00Z,26.1914,-97.0507,18.4,11144222 
TABS,ioos:station:wmo:42044:1,2017-01-05T22:30:00Z,26.1914,-97.0507,18.4,11144222 
TABS,ioos:station:wmo:42044:1,2017-01-05T23:00:00Z,26.1914,-97.0507,18.1,11144222 
TABS,ioos:station:wmo:42044:1,2017-01-05T23:30:00Z,26.1914,-97.0507,17.9,11144222 
TABS,ioos:station:wmo:42044:1,2017-01-06T00:00:00Z,26.1914,-97.0507,17.7,11144222 
TABS,ioos:station:wmo:42044:1,2017-01-06T00:30:00Z,26.1914,-97.0507,17.8,11144222 
TABS,ioos:station:wmo:42044:1,2017-01-06T01:00:00Z,26.1914,-97.0507,17.8,11144222 
TABS,ioos:station:wmo:42044:1,2017-01-06T01:30:00Z,26.1914,-97.0507,18.1,11144222 
TABS,ioos:station:wmo:42044:1,2017-01-06T02:00:00Z,26.1914,-97.0507,18.1,11144222 
TABS,ioos:station:wmo:42044:1,2017-01-06T02:30:00Z,26.1914,-97.0507,17.9,11144222 
TABS,ioos:station:wmo:42044:1,2017-01-06T03:00:00Z,26.1914,-97.0507,18.3,11144222 
TABS,ioos:station:wmo:42044:1,2017-01-06T03:30:00Z,26.1914,-97.0507,18.2,11144222 
TABS,ioos:station:wmo:42044:1,2017-01-06T04:00:00Z,26.1914,-97.0507,18.4,11144222 
TABS,ioos:station:wmo:42044:1,2017-01-06T04:30:00Z,26.1914,-97.0507,18.4,11144222 
TABS,ioos:station:wmo:42044:1,2017-01-06T05:00:00Z,26.1914,-97.0507,18.4,11144222 
TABS,ioos:station:wmo:42044:1,2017-01-06T05:30:00Z,26.1914,-97.0507,18.2,11144222 
TABS,ioos:station:wmo:42044:1,2017-01-06T06:00:00Z,26.1914,-97.0507,18.2,11144222 
TABS,ioos:station:wmo:42044:1,2017-01-06T06:30:00Z,26.1914,-97.0507,18.4,11144222 
TABS,ioos:station:wmo:42044:1,2017-01-06T07:00:00Z,26.1914,-97.0507,18.4,11144222 
TABS,ioos:station:wmo:42044:1,2017-01-06T07:30:00Z,26.1914,-97.0507,18.3,11144222 
TABS,ioos:station:wmo:42044:1,2017-01-06T08:00:00Z,26.1914,-97.0507,18.4,11144222 
TABS,ioos:station:wmo:42044:1,2017-01-06T08:30:00Z,26.1914,-97.0507,18.3,11144222 
TABS,ioos:station:wmo:42044:1,2017-01-06T09:00:00Z,26.1914,-97.0507,18.3,11144222 
TABS,ioos:station:wmo:42044:1,2017-01-06T09:30:00Z,26.1914,-97.0507,17.9,11144222 
TABS,ioos:station:wmo:42044:1,2017-01-06T10:00:00Z,26.1914,-97.0507,17.2,11144222 
TABS,ioos:station:wmo:42044:1,2017-01-06T10:30:00Z,26.1914,-97.0507,17.2,11144222 
TABS,ioos:station:wmo:42044:1,2017-01-06T11:00:00Z,26.1914,-97.0507,17.5,11144222 
TABS,ioos:station:wmo:42044:1,2017-01-06T11:30:00Z,26.1914,-97.0507,17.2,11144222 
TABS,ioos:station:wmo:42044:1,2017-01-06T12:00:00Z,26.1914,-97.0507,16.4,11144222 
TABS,ioos:station:wmo:42044:1,2017-01-06T12:30:00Z,26.1914,-97.0507,16.3,11144222 
TABS,ioos:station:wmo:42044:1,2017-01-06T13:00:00Z,26.1914,-97.0507,16.0,11144222 
TABS,ioos:station:wmo:42044:1,2017-01-06T13:30:00Z,26.1914,-97.0507,15.3,11144222 
TABS,ioos:station:wmo:42044:1,2017-01-06T14:00:00Z,26.1914,-97.0507,15.2,11144222 
TABS,ioos:station:wmo:42044:1,2017-01-06T14:30:00Z,26.1914,-97.0507,15.0,11144222 
TABS,ioos:station:wmo:42044:1,2017-01-06T15:00:00Z,26.1914,-97.0507,14.4,11144222 
TABS,ioos:station:wmo:42044:1,2017-01-06T15:30:00Z,26.1914,-97.0507,13.3,11144222 
TABS,ioos:station:wmo:42044:1,2017-01-06T16:00:00Z,26.1914,-97.0507,12.6,11144222 
TABS,ioos:station:wmo:42044:1,2017-01-06T16:30:00Z,26.1914,-97.0507,12.0,11144222 
TABS,ioos:station:wmo:42044:1,2017-01-06T17:00:00Z,26.1914,-97.0507,11.4,11144222 
TABS,ioos:station:wmo:42044:1,2017-01-06T17:30:00Z,26.1914,-97.0507,11.0,11144222 
TABS,ioos:station:wmo:42044:1,2017-01-06T18:00:00Z,26.1914,-97.0507,10.8,11144222 
TABS,ioos:station:wmo:42044:1,2017-01-06T18:30:00Z,26.1914,-97.0507,10.6,11144222 
TABS,ioos:station:wmo:42044:1,2017-01-06T19:00:00Z,26.1914,-97.0507,10.2,11144222 
TABS,ioos:station:wmo:42044:1,2017-01-06T19:30:00Z,26.1914,-97.0507,9.4,11144222 
TABS,ioos:station:wmo:42044:1,2017-01-06T20:00:00Z,26.1914,-97.0507,9.2,11144222 
TABS,ioos:station:wmo:42044:1,2017-01-06T20:30:00Z,26.1914,-97.0507,8.0,11144222 
TABS,ioos:station:wmo:42044:1,2017-01-06T21:00:00Z,26.1914,-97.0507,7.7,11144222 
TABS,ioos:station:wmo:42044:1,2017-01-06T21:30:00Z,26.1914,-97.0507,8.1,11144222 
TABS,ioos:station:wmo:42044:1,2017-01-06T22:00:00Z,26.1914,-97.0507,8.0,11144222 
TABS,ioos:station:wmo:42044:1,2017-01-06T22:30:00Z,26.1914,-97.0507,8.2,11144222 
TABS,ioos:station:wmo:42044:1,2017-01-06T23:00:00Z,26.1914,-97.0507,8.4,11144222 
TABS,ioos:station:wmo:42044:1,2017-01-06T23:30:00Z,26.1914,-97.0507,8.0,11144222 
TABS,ioos:station:wmo:42044:1,2017-01-07T00:00:00Z,26.1914,-97.0507,8.0,11144222 
TABS,ioos:station:wmo:42044:1,2017-01-07T00:30:00Z,26.1914,-97.0507,8.4,11144222 
TABS,ioos:station:wmo:42044:1,2017-01-07T01:00:00Z,26.1914,-97.0507,8.3,11144222 
TABS,ioos:station:wmo:42044:1,2017-01-07T01:30:00Z,26.1914,-97.0507,8.0,11144222 
TABS,ioos:station:wmo:42044:1,2017-01-07T02:00:00Z,26.1914,-97.0507,7.9,11144222 
TABS,ioos:station:wmo:42044:1,2017-01-07T02:30:00Z,26.1914,-97.0507,7.3,11144222 
TABS,ioos:station:wmo:42044:1,2017-01-07T03:00:00Z,26.1914,-97.0507,7.4,11144222 
TABS,ioos:station:wmo:42044:1,2017-01-07T03:30:00Z,26.1914,-97.0507,7.1,11144222 
TABS,ioos:station:wmo:42044:1,2017-01-07T04:00:00Z,26.1914,-97.0507,7.3,11144222 
TABS,ioos:station:wmo:42044:1,2017-01-07T04:30:00Z,26.1914,-97.0507,8.0,11144222 
TABS,ioos:station:wmo:42044:1,2017-01-07T05:00:00Z,26.1914,-97.0507,7.4,11144222 
TABS,ioos:station:wmo:42044:1,2017-01-07T05:30:00Z,26.1914,-97.0507,6.8,11144222 
TABS,ioos:station:wmo:42044:1,2017-01-07T06:00:00Z,26.1914,-97.0507,6.0,11144222 
TABS,ioos:station:wmo:42044:1,2017-01-07T06:30:00Z,26.1914,-97.0507,4.9,11144222 
TABS,ioos:station:wmo:42044:1,2017-01-07T07:00:00Z,26.1914,-97.0507,4.6,11144222 
TABS,ioos:station:wmo:42044:1,2017-01-07T07:30:00Z,26.1914,-97.0507,5.1,11144222 
TABS,ioos:station:wmo:42044:1,2017-01-07T08:00:00Z,26.1914,-97.0507,4.9,11144222 
TABS,ioos:station:wmo:42044:1,2017-01-07T08:30:00Z,26.1914,-97.0507,5.2,11144222 
TABS,ioos:station:wmo:42044:1,2017-01-07T09:00:00Z,26.1914,-97.0507,3.9,11144222 
TABS,ioos:station:wmo:42044:1,2017-01-07T09:30:00Z,26.1914,-97.0507,4.0,11144222 
TABS,ioos:station:wmo:42044:1,2017-01-07T10:00:00Z,26.1914,-97.0507,3.7,11144222 
TABS,ioos:station:wmo:42044:1,2017-01-07T10:30:00Z,26.1914,-97.0507,4.0,11144222 
TABS,ioos:station:wmo:42044:1,2017-01-07T11:00:00Z,26.1914,-97.0507,4.2,11144222 
TABS,ioos:station:wmo:42044:1,2017-01-07T11:30:00Z,26.1914,-97.0507,3.9,11144222 
TABS,ioos:station:wmo:42044:1,2017-01-07T12:00:00Z,26.1914,-97.0507,3.3,11144222 
TABS,ioos:station:wmo:42044:1,2017-01-07T12:30:00Z,26.1914,-97.0507,3.4,11144222 
TABS,ioos:station:wmo:42044:1,2017-01-07T13:00:00Z,26.1914,-97.0507,2.5,11144222 
TABS,ioos:station:wmo:42044:1,2017-01-07T13:30:00Z,26.1914,-97.0507,3.2,11144222 
TABS,ioos:station:wmo:42044:1,2017-01-07T14:00:00Z,26.1914,-97.0507,2.6,11144222 
TABS,ioos:station:wmo:42044:1,2017-01-07T14:30:00Z,26.1914,-97.0507,4.4,11144222 
TABS,ioos:station:wmo:42044:1,2017-01-07T15:00:00Z,26.1914,-97.0507,4.3,11144222 
TABS,ioos:station:wmo:42044:1,2017-01-07T15:30:00Z,26.1914,-97.0507,4.1,11144222 
TABS,ioos:station:wmo:42044:1,2017-01-07T16:00:00Z,26.1914,-97.0507,4.1,11144222 
TABS,ioos:station:wmo:42044:1,2017-01-07T16:30:00Z,26.1914,-97.0507,3.9,11144222 
TABS,ioos:station:wmo:42044:1,2017-01-07T17:00:00Z,26.1914,-97.0507,4.3,11144222 
TABS,ioos:station:wmo:42044:1,2017-01-07T17:30:00Z,26.1914,-97.0507,4.9,11144222 
TABS,ioos:station:wmo:42044:1,2017-01-07T18:00:00Z,26.1914,-97.0507,4.7,11144222 
TABS,ioos:station:wmo:42044:1,2017-01-07T18:30:00Z,26.1914,-97.0507,4.8,11144222 
TABS,ioos:station:wmo:42044:1,2017-01-07T19:00:00Z,26.1914,-97.0507,4.8,11144222 
TABS,ioos:station:wmo:42044:1,2017-01-07T19:30:00Z,26.1914,-97.0507,4.2,11144222 
TABS,ioos:station:wmo:42044:1,2017-01-07T20:00:00Z,26.1914,-97.0507,4.1,11144222 
TABS,ioos:station:wmo:42044:1,2017-01-07T20:30:00Z,26.1914,-97.0507,4.5,11144222 
TABS,ioos:station:wmo:42044:1,2017-01-07T21:00:00Z,26.1914,-97.0507,6.3,11144222 
TABS,ioos:station:wmo:42044:1,2017-01-07T21:30:00Z,26.1914,-97.0507,6.3,11144222 
TABS,ioos:station:wmo:42044:1,2017-01-07T22:00:00Z,26.1914,-97.0507,7.0,11144222 
TABS,ioos:station:wmo:42044:1,2017-01-07T22:30:00Z,26.1914,-97.0507,7.3,11144222 
TABS,ioos:station:wmo:42044:1,2017-01-07T23:00:00Z,26.1914,-97.0507,7.7,11144222 
TABS,ioos:station:wmo:42044:1,2017-01-07T23:30:00Z,26.1914,-97.0507,8.1,11144222 
TABS,ioos:station:wmo:42044:1,2017-01-08T00:00:00Z,26.1914,-97.0507,8.2,11144222 
TABS,ioos:station:wmo:42044:1,2017-01-08T00:30:00Z,26.1914,-97.0507,8.5,11144222 
TABS,ioos:station:wmo:42044:1,2017-01-08T01:00:00Z,26.1914,-97.0507,9.3,11144222 
TABS,ioos:station:wmo:42044:1,2017-01-08T01:30:00Z,26.1914,-97.0507,8.9,11144222 
TABS,ioos:station:wmo:42044:1,2017-01-08T02:00:00Z,26.1914,-97.0507,9.2,11144222 
TABS,ioos:station:wmo:42044:1,2017-01-08T02:30:00Z,26.1914,-97.0507,9.2,11144222 
TABS,ioos:station:wmo:42044:1,2017-01-08T03:00:00Z,26.1914,-97.0507,9.0,11144222 
TABS,ioos:station:wmo:42044:1,2017-01-08T03:30:00Z,26.1914,-97.0507,9.2,11144222 
TABS,ioos:station:wmo:42044:1,2017-01-08T04:00:00Z,26.1914,-97.0507,9.0,11144222 
TABS,ioos:station:wmo:42044:1,2017-01-08T04:30:00Z,26.1914,-97.0507,7.4,11144222 
TABS,ioos:station:wmo:42044:1,2017-01-08T05:00:00Z,26.1914,-97.0507,6.8,11144222 
TABS,ioos:station:wmo:42044:1,2017-01-08T05:30:00Z,26.1914,-97.0507,6.8,11144222 
TABS,ioos:station:wmo:42044:1,2017-01-08T06:00:00Z,26.1914,-97.0507,6.6,11144222 
TABS,ioos:station:wmo:42044:1,2017-01-08T06:30:00Z,26.1914,-97.0507,6.5,11144222 
TABS,ioos:station:wmo:42044:1,2017-01-08T07:00:00Z,26.1914,-97.0507,6.6,11144222 
TABS,ioos:station:wmo:42044:1,2017-01-08T07:30:00Z,26.1914,-97.0507,6.6,11144222 
TABS,ioos:station:wmo:42044:1,2017-01-08T08:00:00Z,26.1914,-97.0507,6.6,11144222 
TABS,ioos:station:wmo:42044:1,2017-01-08T08:30:00Z,26.1914,-97.0507,6.9,11144222 
TABS,ioos:station:wmo:42044:1,2017-01-08T09:00:00Z,26.1914,-97.0507,7.0,11144222 
TABS,ioos:station:wmo:42044:1,2017-01-08T09:30:00Z,26.1914,-97.0507,7.5,11144222 
TABS,ioos:station:wmo:42044:1,2017-01-08T10:00:00Z,26.1914,-97.0507,7.9,11144222 
TABS,ioos:station:wmo:42044:1,2017-01-08T10:30:00Z,26.1914,-97.0507,8.3,11144222 
TABS,ioos:station:wmo:42044:1,2017-01-08T11:00:00Z,26.1914,-97.0507,8.8,11144222 
TABS,ioos:station:wmo:42044:1,2017-01-08T11:30:00Z,26.1914,-97.0507,9.2,11144222 
TABS,ioos:station:wmo:42044:1,2017-01-08T12:00:00Z,26.1914,-97.0507,9.7,11144222 
TABS,ioos:station:wmo:42044:1,2017-01-08T12:30:00Z,26.1914,-97.0507,10.1,11144222 
TABS,ioos:station:wmo:42044:1,2017-01-08T13:00:00Z,26.1914,-97.0507,11.0,11144222 
TABS,ioos:station:wmo:42044:1,2017-01-08T13:30:00Z,26.1914,-97.0507,11.7,11144222 
TABS,ioos:station:wmo:42044:1,2017-01-08T14:00:00Z,26.1914,-97.0507,13.4,11144222 
TABS,ioos:station:wmo:42044:1,2017-01-08T14:30:00Z,26.1914,-97.0507,13.7,11144222 
TABS,ioos:station:wmo:42044:1,2017-01-08T15:00:00Z,26.1914,-97.0507,13.8,11144222 
TABS,ioos:station:wmo:42044:1,2017-01-08T15:30:00Z,26.1914,-97.0507,14.0,11144222 
TABS,ioos:station:wmo:42044:1,2017-01-08T16:00:00Z,26.1914,-97.0507,14.1,11144222 
TABS,ioos:station:wmo:42044:1,2017-01-08T16:30:00Z,26.1914,-97.0507,14.0,11144222 
TABS,ioos:station:wmo:42044:1,2017-01-08T17:00:00Z,26.1914,-97.0507,14.2,11144222 
TABS,ioos:station:wmo:42044:1,2017-01-08T17:30:00Z,26.1914,-97.0507,14.5,11144222 
TABS,ioos:station:wmo:42044:1,2017-01-08T18:00:00Z,26.1914,-97.0507,14.9,11144222 
TABS,ioos:station:wmo:42044:1,2017-01-08T18:30:00Z,26.1914,-97.0507,15.0,11144222 
TABS,ioos:station:wmo:42044:1,2017-01-08T19:00:00Z,26.1914,-97.0507,15.1,11144222 
TABS,ioos:station:wmo:42044:1,2017-01-08T19:30:00Z,26.1914,-97.0507,15.0,11144222 
TABS,ioos:station:wmo:42044:1,2017-01-08T20:00:00Z,26.1914,-97.0507,15.2,11144222 
TABS,ioos:station:wmo:42044:1,2017-01-08T20:30:00Z,26.1914,-97.0507,15.2,11144222 
TABS,ioos:station:wmo:42044:1,2017-01-08T21:00:00Z,26.1914,-97.0507,15.2,11144222 
TABS,ioos:station:wmo:42044:1,2017-01-08T21:30:00Z,26.1914,-97.0507,15.4,11144222 
TABS,ioos:station:wmo:42044:1,2017-01-08T22:00:00Z,26.1914,-97.0507,15.4,11144222 
TABS,ioos:station:wmo:42044:1,2017-01-08T22:30:00Z,26.1914,-97.0507,15.6,11144222 
TABS,ioos:station:wmo:42044:1,2017-01-08T23:00:00Z,26.1914,-97.0507,15.5,11144222 
TABS,ioos:station:wmo:42044:1,2017-01-08T23:30:00Z,26.1914,-97.0507,15.6,11144222 
TABS,ioos:station:wmo:42044:1,2017-01-09T00:00:00Z,26.1914,-97.0507,15.8,11144222 
TABS,ioos:station:wmo:42044:1,2017-01-09T00:30:00Z,26.1914,-97.0507,15.9,11144222 
TABS,ioos:station:wmo:42044:1,2017-01-09T01:00:00Z,26.1914,-97.0507,15.8,11144222 
TABS,ioos:station:wmo:42044:1,2017-01-09T01:30:00Z,26.1914,-97.0507,16.0,11144222 
TABS,ioos:station:wmo:42044:1,2017-01-09T02:00:00Z,26.1914,-97.0507,16.1,11144222 
TABS,ioos:station:wmo:42044:1,2017-01-09T02:30:00Z,26.1914,-97.0507,16.4,11144222 
TABS,ioos:station:wmo:42044:1,2017-01-09T03:00:00Z,26.1914,-97.0507,16.5,11144222 
TABS,ioos:station:wmo:42044:1,2017-01-09T03:30:00Z,26.1914,-97.0507,16.5,11144222 
TABS,ioos:station:wmo:42044:1,2017-01-09T04:00:00Z,26.1914,-97.0507,16.6,11144222 
TABS,ioos:station:wmo:42044:1,2017-01-09T04:30:00Z,26.1914,-97.0507,16.5,11144222 
TABS,ioos:station:wmo:42044:1,2017-01-09T05:00:00Z,26.1914,-97.0507,16.7,11144222 
TABS,ioos:station:wmo:42044:1,2017-01-09T05:30:00Z,26.1914,-97.0507,16.7,11144222 
TABS,ioos:station:wmo:42044:1,2017-01-09T06:00:00Z,26.1914,-97.0507,16.8,11144222 
TABS,ioos:station:wmo:42044:1,2017-01-09T06:30:00Z,26.1914,-97.0507,16.6,11144222 
TABS,ioos:station:wmo:42044:1,2017-01-09T07:00:00Z,26.1914,-97.0507,16.7,11144222 
TABS,ioos:station:wmo:42044:1,2017-01-09T07:30:00Z,26.1914,-97.0507,16.7,11144222 
TABS,ioos:station:wmo:42044:1,2017-01-09T08:00:00Z,26.1914,-97.0507,16.6,11144222 
TABS,ioos:station:wmo:42044:1,2017-01-09T08:30:00Z,26.1914,-97.0507,16.4,11144222 
TABS,ioos:station:wmo:42044:1,2017-01-09T09:00:00Z,26.1914,-97.0507,16.2,11144222 
TABS,ioos:station:wmo:42044:1,2017-01-09T09:30:00Z,26.1914,-97.0507,15.4,11144222 
TABS,ioos:station:wmo:42044:1,2017-01-09T10:00:00Z,26.1914,-97.0507,15.3,11144222 
TABS,ioos:station:wmo:42044:1,2017-01-09T10:30:00Z,26.1914,-97.0507,15.1,11144222 
TABS,ioos:station:wmo:42044:1,2017-01-09T11:00:00Z,26.1914,-97.0507,15.0,11144222 
TABS,ioos:station:wmo:42044:1,2017-01-09T11:30:00Z,26.1914,-97.0507,13.1,11144222 
TABS,ioos:station:wmo:42044:1,2017-01-09T12:00:00Z,26.1914,-97.0507,13.0,11144222 
TABS,ioos:station:wmo:42044:1,2017-01-09T12:30:00Z,26.1914,-97.0507,13.2,11144222 
TABS,ioos:station:wmo:42044:1,2017-01-09T13:00:00Z,26.1914,-97.0507,13.6,11144222 
TABS,ioos:station:wmo:42044:1,2017-01-09T13:30:00Z,26.1914,-97.0507,13.6,11144222 
TABS,ioos:station:wmo:42044:1,2017-01-09T14:00:00Z,26.1914,-97.0507,14.0,11144222 
TABS,ioos:station:wmo:42044:1,2017-01-09T14:30:00Z,26.1914,-97.0507,14.5,11144222 
TABS,ioos:station:wmo:42044:1,2017-01-09T15:00:00Z,26.1914,-97.0507,14.5,11144222 
TABS,ioos:station:wmo:42044:1,2017-01-09T15:30:00Z,26.1914,-97.0507,14.7,11144222 
TABS,ioos:station:wmo:42044:1,2017-01-09T16:00:00Z,26.1914,-97.0507,14.7,11144222 
TABS,ioos:station:wmo:42044:1,2017-01-09T16:30:00Z,26.1914,-97.0507,14.8,11144222 
TABS,ioos:station:wmo:42044:1,2017-01-09T17:00:00Z,26.1914,-97.0507,15.0,11144222 
TABS,ioos:station:wmo:42044:1,2017-01-09T17:30:00Z,26.1914,-97.0507,15.2,11144222 
TABS,ioos:station:wmo:42044:1,2017-01-09T18:00:00Z,26.1914,-97.0507,15.3,11144222 
TABS,ioos:station:wmo:42044:1,2017-01-09T18:30:00Z,26.1914,-97.0507,15.5,11144222 
TABS,ioos:station:wmo:42044:1,2017-01-09T19:00:00Z,26.1914,-97.0507,15.6,11144222 
TABS,ioos:station:wmo:42044:1,2017-01-09T19:30:00Z,26.1914,-97.0507,15.9,11144222 
TABS,ioos:station:wmo:42044:1,2017-01-09T20:00:00Z,26.1914,-97.0507,16.0,11144222 
TABS,ioos:station:wmo:42044:1,2017-01-09T20:30:00Z,26.1914,-97.0507,16.1,11144222 
TABS,ioos:station:wmo:42044:1,2017-01-09T21:00:00Z,26.1914,-97.0507,16.1,11144222 
TABS,ioos:station:wmo:42044:1,2017-01-09T21:30:00Z,26.1914,-97.0507,16.3,11144222 
TABS,ioos:station:wmo:42044:1,2017-01-09T22:00:00Z,26.1914,-97.0507,16.3,11144222 
TABS,ioos:station:wmo:42044:1,2017-01-09T22:30:00Z,26.1914,-97.0507,16.4,11144222 
TABS,ioos:station:wmo:42044:1,2017-01-09T23:00:00Z,26.1914,-97.0507,16.4,11144222 
TABS,ioos:station:wmo:42044:1,2017-01-09T23:30:00Z,26.1914,-97.0507,16.3,11144222 
TABS,ioos:station:wmo:42044:1,2017-01-10T00:00:00Z,26.1914,-97.0507,15.9,11144222 
TABS,ioos:station:wmo:42044:1,2017-01-10T00:30:00Z,26.1914,-97.0507,16.0,11144222 
TABS,ioos:station:wmo:42044:1,2017-01-10T01:00:00Z,26.1914,-97.0507,16.3,11144222 
TABS,ioos:station:wmo:42044:1,2017-01-10T01:30:00Z,26.1914,-97.0507,16.3,11144222 
TABS,ioos:station:wmo:42044:1,2017-01-10T02:00:00Z,26.1914,-97.0507,16.3,11144222 
TABS,ioos:station:wmo:42044:1,2017-01-10T02:30:00Z,26.1914,-97.0507,16.5,11144222 
TABS,ioos:station:wmo:42044:1,2017-01-10T03:00:00Z,26.1914,-97.0507,16.7,11144222 
TABS,ioos:station:wmo:42044:1,2017-01-10T03:30:00Z,26.1914,-97.0507,16.7,11144222 
TABS,ioos:station:wmo:42044:1,2017-01-10T04:00:00Z,26.1914,-97.0507,16.8,11144222 
TABS,ioos:station:wmo:42044:1,2017-01-10T04:30:00Z,26.1914,-97.0507,16.8,11144222 
TABS,ioos:station:wmo:42044:1,2017-01-10T05:00:00Z,26.1914,-97.0507,17.0,11144222 
TABS,ioos:station:wmo:42044:1,2017-01-10T05:30:00Z,26.1914,-97.0507,17.0,11144222 
TABS,ioos:station:wmo:42044:1,2017-01-10T06:00:00Z,26.1914,-97.0507,17.0,11144222 
TABS,ioos:station:wmo:42044:1,2017-01-10T06:30:00Z,26.1914,-97.0507,17.0,11144222 
TABS,ioos:station:wmo:42044:1,2017-01-10T07:00:00Z,26.1914,-97.0507,17.0,11144222 
TABS,ioos:station:wmo:42044:1,2017-01-10T07:30:00Z,26.1914,-97.0507,16.9,11144222 
TABS,ioos:station:wmo:42044:1,2017-01-10T08:00:00Z,26.1914,-97.0507,16.9,11144222 
TABS,ioos:station:wmo:42044:1,2017-01-10T08:30:00Z,26.1914,-97.0507,16.8,11144222 
TABS,ioos:station:wmo:42044:1,2017-01-10T09:00:00Z,26.1914,-97.0507,16.7,11144222 
TABS,ioos:station:wmo:42044:1,2017-01-10T09:30:00Z,26.1914,-97.0507,16.5,11144222 
TABS,ioos:station:wmo:42044:1,2017-01-10T10:00:00Z,26.1914,-97.0507,16.5,11144222 
TABS,ioos:station:wmo:42044:1,2017-01-10T10:30:00Z,26.1914,-97.0507,16.4,11144222 
TABS,ioos:station:wmo:42044:1,2017-01-10T11:00:00Z,26.1914,-97.0507,16.4,11144222 
TABS,ioos:station:wmo:42044:1,2017-01-10T11:30:00Z,26.1914,-97.0507,16.3,11144222 
TABS,ioos:station:wmo:42044:1,2017-01-10T12:00:00Z,26.1914,-97.0507,16.1,11144222 
TABS,ioos:station:wmo:42044:1,2017-01-10T12:30:00Z,26.1914,-97.0507,16.0,11144222 
TABS,ioos:station:wmo:42044:1,2017-01-10T13:00:00Z,26.1914,-97.0507,16.1,11144222 
TABS,ioos:station:wmo:42044:1,2017-01-10T13:30:00Z,26.1914,-97.0507,16.0,11144222 
TABS,ioos:station:wmo:42044:1,2017-01-10T14:00:00Z,26.1914,-97.0507,16.3,11144222 
TABS,ioos:station:wmo:42044:1,2017-01-10T14:30:00Z,26.1914,-97.0507,16.9,11144222 
TABS,ioos:station:wmo:42044:1,2017-01-10T15:00:00Z,26.1914,-97.0507,17.0,11144222 
TABS,ioos:station:wmo:42044:1,2017-01-10T15:30:00Z,26.1914,-97.0507,17.4,11144222 
TABS,ioos:station:wmo:42044:1,2017-01-10T16:00:00Z,26.1914,-97.0507,17.2,11144222 
TABS,ioos:station:wmo:42044:1,2017-01-10T16:30:00Z,26.1914,-97.0507,17.2,11144222 
TABS,ioos:station:wmo:42044:1,2017-01-10T17:00:00Z,26.1914,-97.0507,17.5,11144222 
TABS,ioos:station:wmo:42044:1,2017-01-10T17:30:00Z,26.1914,-97.0507,17.9,11144222 
TABS,ioos:station:wmo:42044:1,2017-01-10T18:00:00Z,26.1914,-97.0507,17.9,11144222 
TABS,ioos:station:wmo:42044:1,2017-01-10T18:30:00Z,26.1914,-97.0507,17.8,11144222 
TABS,ioos:station:wmo:42044:1,2017-01-10T19:00:00Z,26.1914,-97.0507,17.5,11144222 
TABS,ioos:station:wmo:42044:1,2017-01-10T19:30:00Z,26.1914,-97.0507,17.5,11144222 
TABS,ioos:station:wmo:42044:1,2017-01-10T20:00:00Z,26.1914,-97.0507,17.7,11144222 
TABS,ioos:station:wmo:42044:1,2017-01-10T20:30:00Z,26.1914,-97.0507,17.7,11144222 
TABS,ioos:station:wmo:42044:1,2017-01-10T21:00:00Z,26.1914,-97.0507,17.8,11144222 
TABS,ioos:station:wmo:42044:1,2017-01-10T21:30:00Z,26.1914,-97.0507,17.8,11144222 
TABS,ioos:station:wmo:42044:1,2017-01-10T22:00:00Z,26.1914,-97.0507,17.9,11144222 
TABS,ioos:station:wmo:42044:1,2017-01-10T22:30:00Z,26.1914,-97.0507,17.8,11144222 
TABS,ioos:station:wmo:42044:1,2017-01-10T23:00:00Z,26.1914,-97.0507,17.3,11144222 
TABS,ioos:station:wmo:42044:1,2017-01-10T23:30:00Z,26.1914,-97.0507,17.6,11144222 
TABS,ioos:station:wmo:42044:1,2017-01-11T00:00:00Z,26.1914,-97.0507,17.2,11144222 